sat.trackr.live / text

‹ back to catalog

STARLINK-4576

NORAD 53566 · 2022-101AR

PAYLOAD ACTIVE UNKNOWN

§ Identity

Operator
Country
US
Launch date
2022-08-19
Launch site
AFETR
Launch vehicle
Mass (kg)
RCS (m²)

Purposes: comms

External: N2YO · Heavens-Above · Gunter

§ Orbital elements

Epoch: 2026-05-25T04:27:18.108000Z

Period
95.44 min
Inclination
53.2124°
Eccentricity
0.0001365
Mean motion
15.08839251 rev/d
Perigee alt
538.8 km
Apogee alt
540.7 km
Semi-major
6,917.9 km
B*
3.8082e-5
RAAN
70.7046°
Arg perigee
67.4670°
Mean anomaly
292.6467°
Rev number
20,868

§ Raw data

STARLINK-45761 53566U 22101AR  26145.18562625  .00000318  00000+0  38082-4 0  99902 53566  53.2124  70.7046 0001365  67.4670 292.6467 15.08839251208685

JSON: /api/v1/satellites/53566 · /tle

For live sub-satellite position, see the globe view (requires WebGL).

§ Visibility from observer

Set your observer location to see the next 7 days of passes ≥ 10°. The values pass through the URL so the page stays shareable.

No JS? Fill the form by hand. The geolocation button needs JavaScript.